GW2464 Weather Reports


Display with metric or nautical units.
time (UTC)temp
F
wind
direction
speed
MPH
gust
MPH
rain 1hr
in
rain 24hr
in
rain mn
in
humidity
%
barometer
mb
20260906133057 62 87 2.0 2.0 0.00 0.00 0.00 92 1017.9
20260906132553 62 300 2.0 5.0 0.00 0.00 0.00 91 1017.7
20260906132048 62 317 4.0 7.0 0.00 0.00 0.00 92 1017.6
20260906131543 61 15 0.0 1.0 0.00 0.00 0.00 94 1017.7
20260906131039 61 18 3.0 5.0 0.00 0.00 0.00 94 1017.6
20260906130538 61 223 3.0 3.0 0.00 0.00 0.00 95 1017.6
20260906130033 61 11 0.0 0.0 0.00 0.00 0.00 96 1017.6
20260906125530 60 21 1.0 2.0 0.00 0.00 0.00 96 1017.6
20260906125025 60 318 2.0 2.0 0.00 0.00 0.00 97 1017.6
20260906124520 60 6 0.0 0.0 0.00 0.00 0.00 98 1017.7
20260906124015 60 82 1.0 1.0 0.00 0.00 0.00 98 1017.8
20260906123514 60 12 0.0 0.0 0.00 0.00 0.00 98 1017.6
20260906123010 59 352 2.0 2.0 0.00 0.00 0.00 99 1017.6
20260906122504 59 224 0.0 1.0 0.00 0.00 0.00 99 1017.6
20260906122000 59 211 2.0 5.0 0.00 0.00 0.00 99 1017.5
20260906121456 59 342 2.0 2.0 0.00 0.00 0.00 99 1017.4
20260906120952 59 46 3.0 3.0 0.00 0.00 0.00 99 1017.5
20260906120447 59 3 0.0 0.0 0.00 0.00 0.00 99 1017.4
20260906115944 59 70 1.0 1.0 0.00 0.00 0.00 99 1017.6
20260906115439 58 17 1.0 1.0 0.00 0.00 0.00 99 1017.5
20260906114938 58 16 0.0 1.0 0.00 0.00 0.00 99 1017.3
20260906114433 58 18 0.0 0.0 0.00 0.00 0.00 99 1017.1
20260906113929 58 14 0.0 0.0 0.00 0.00 0.00 99 1017.1
20260906113427 58 328 1.0 1.0 0.00 0.00 0.00 99 1017.0
20260906112923 58 18 0.0 0.0 0.00 0.00 0.00 99 1017.3
20260906112419 58 22 0.0 1.0 0.00 0.00 0.00 99 1017.0
20260906111914 58 17 0.0 0.0 0.00 0.00 0.00 99 1017.0
20260906111413 58 38 0.0 0.0 0.00 0.00 0.00 99 1017.0
20260906110909 58 21 0.0 0.0 0.00 0.00 0.00 99 1017.1
20260906110404 57 78 2.0 2.0 0.00 0.00 0.00 99 1016.8
20260906105903 57 82 2.0 2.0 0.00 0.00 0.00 99 1016.8
20260906105359 57 22 0.0 0.0 0.00 0.00 0.00 99 1016.8
20260906104854 56 32 0.0 0.0 0.00 0.00 0.00 99 1016.7
20260906104353 56 15 0.0 0.0 0.00 0.00 0.00 99 1016.7
20260906103852 55 16 0.0 1.0 0.00 0.00 0.00 99 1016.4
20260906103350 56 347 1.0 1.0 0.00 0.00 0.00 99 1016.5
20260906102846 55 51 1.0 1.0 0.00 0.00 0.00 99 1016.3
20260906102345 55 45 0.0 1.0 0.00 0.00 0.00 99 1016.4
20260906101840 55 16 0.0 0.0 0.00 0.00 0.00 99 1016.1
20260906101335 55 16 0.0 0.0 0.00 0.00 0.00 99 1016.2
20260906100831 55 15 0.0 0.0 0.00 0.00 0.00 99 1016.1
20260906100330 55 27 0.0 0.0 0.00 0.00 0.00 99 1016.1
20260906095825 56 19 0.0 0.0 0.00 0.00 0.00 99 1016.1
20260906095321 56 14 0.0 0.0 0.00 0.00 0.00 99 1016.0
20260906094820 56 22 0.0 0.0 0.00 0.00 0.00 99 1016.0
20260906094315 56 20 0.0 0.0 0.00 0.00 0.00 99 1016.2
20260906093812 56 17 0.0 0.0 0.00 0.00 0.00 99 1016.0
20260906093307 56 12 0.0 0.0 0.00 0.00 0.00 99 1016.2
20260906092802 56 25 0.0 0.0 0.00 0.00 0.00 99 1016.0
20260906092305 56 10 0.0 0.0 0.00 0.00 0.00 99 1016.0
20260906091758 56 19 0.0 0.0 0.00 0.00 0.00 99 1015.9
20260906091254 56 22 0.0 0.0 0.00 0.00 0.00 99 1016.0
20260906090750 56 23 0.0 0.0 0.00 0.00 0.00 99 1016.0
20260906090249 56 20 1.0 1.0 0.00 0.00 0.00 99 1015.8
20260906085748 56 23 0.0 1.0 0.00 0.00 0.00 99 1015.6
20260906085248 56 15 1.0 1.0 0.00 0.00 0.00 99 1015.6
20260906084742 56 18 0.0 0.0 0.00 0.00 0.00 99 1015.8
20260906084241 56 21 0.0 0.0 0.00 0.00 0.00 99 1015.7
20260906083737 56 19 1.0 1.0 0.00 0.00 0.00 99 1015.6
20260906083232 57 15 1.0 1.0 0.00 0.00 0.00 99 1015.6
20260906082727 57 18 0.0 0.0 0.00 0.00 0.00 99 1015.5
20260906082222 56 28 1.0 1.0 0.00 0.00 0.00 99 1015.7
20260906081718 56 18 0.0 1.0 0.00 0.00 0.00 99 1015.6
20260906081214 57 18 0.0 1.0 0.00 0.00 0.00 99 1015.4
20260906080710 56 14 2.0 2.0 0.00 0.00 0.00 99 1015.3
20260906080206 56 20 0.0 0.0 0.00 0.00 0.00 99 1015.5
20260906075705 56 25 0.0 0.0 0.00 0.00 0.00 99 1015.3
20260906075201 56 7 0.0 0.0 0.00 0.00 0.00 99 1015.5
20260906074656 56 23 0.0 1.0 0.00 0.00 0.00 99 1015.5
20260906074154 57 19 0.0 0.0 0.00 0.00 0.00 99 1015.3
20260906073649 57 14 0.0 0.0 0.00 0.00 0.00 99 1015.3
20260906073139 57 28 1.0 1.0 0.00 0.00 0.00 99 1015.3
20260906072634 57 17 0.0 0.0 0.00 0.00 0.00 99 1015.2
20260906072130 57 18 0.0 0.0 0.00 0.00 0.00 99 1015.2
20260906071626 58 21 0.0 0.0 0.00 0.00 0.00 99 1015.5
20260906071121 58 19 0.0 1.0 0.00 0.00 0.00 99 1015.2
20260906070618 58 25 1.0 1.0 0.00 0.00 0.00 99 1015.4
20260906070113 58 25 0.0 0.0 0.00 0.00 0.00 99 1015.2
20260906065613 58 22 0.0 0.0 0.00 0.00 0.00 99 1015.4
20260906065108 58 24 0.0 0.0 0.00 0.00 0.00 99 1015.4
20260906064603 58 25 0.0 1.0 0.00 0.00 0.00 99 1015.5
20260906064058 58 25 0.0 0.0 0.00 0.00 0.00 99 1015.6
20260906063553 58 28 0.0 0.0 0.00 0.00 0.00 99 1015.4
20260906063049 59 16 0.0 0.0 0.00 0.00 0.00 99 1015.5
20260906062544 59 19 0.0 0.0 0.00 0.00 0.00 99 1015.3
20260906062038 58 17 0.0 0.0 0.00 0.00 0.00 99 1015.5
20260906061535 59 18 0.0 0.0 0.00 0.00 0.00 99 1015.4
20260906061034 59 16 1.0 1.0 0.00 0.00 0.00 99 1015.6
20260906060531 59 18 0.0 0.0 0.00 0.00 0.00 99 1015.7
20260906060028 59 16 0.0 0.0 0.00 0.00 0.00 99 1015.4
20260906055523 59 17 0.0 0.0 0.00 0.00 0.00 99 1015.5
20260906055018 59 17 0.0 1.0 0.00 0.00 0.00 99 1015.6
20260906054513 59 20 0.0 0.0 0.00 0.00 0.00 99 1015.3
20260906054008 59 19 0.0 0.0 0.00 0.00 0.00 99 1015.4
20260906053504 59 20 0.0 0.0 0.00 0.00 0.00 99 1015.6
20260906053000 59 17 0.0 0.0 0.00 0.00 0.00 99 1015.8
20260906052455 59 17 0.0 0.0 0.00 0.00 0.00 99 1015.7
20260906051952 59 24 0.0 0.0 0.00 0.00 0.00 99 1015.8
20260906051448 59 17 1.0 1.0 0.00 0.00 0.00 99 1015.7
20260906050943 59 15 0.0 0.0 0.00 0.00 0.00 99 1015.8
20260906050442 59 16 0.0 0.0 0.00 0.00 0.00 99 1016.0
20260906045942 59 15 0.0 0.0 0.00 0.00 0.00 99 1015.8
20260906045441 59 17 0.0 0.0 0.00 0.00 0.00 99 1015.8
20260906044937 59 16 0.0 0.0 0.00 0.00 0.00 99 1015.7
20260906044432 60 14 0.0 0.0 0.00 0.00 0.00 99 1015.9
20260906043927 60 19 0.0 0.0 0.00 0.00 0.00 99 1015.8
20260906043423 60 17 0.0 0.0 0.00 0.00 0.00 99 1015.8
20260906042919 60 20 0.0 0.0 0.00 0.00 0.00 99 1015.8
20260906042418 60 18 0.0 0.0 0.00 0.00 0.00 99 1015.7
20260906041913 60 27 0.0 0.0 0.00 0.00 0.00 99 1015.8
20260906041409 60 22 0.0 0.0 0.00 0.00 0.00 99 1015.9
20260906040909 60 8 0.0 0.0 0.00 0.00 0.00 99 1015.6
20260906040404 60 19 0.0 0.0 0.00 0.00 0.00 99 1015.9
20260906035859 60 19 0.0 0.0 0.00 0.00 0.00 99 1015.8
20260906035354 60 15 0.0 0.0 0.00 0.00 0.00 99 1015.6
20260906034850 60 15 0.0 0.0 0.00 0.00 0.00 99 1015.5
20260906034344 60 14 0.0 0.0 0.00 0.00 0.00 99 1015.5
20260906033840 60 12 0.0 0.0 0.00 0.00 0.00 99 1015.4
20260906033339 60 19 0.0 0.0 0.00 0.00 0.00 99 1015.5
20260906032836 60 25 0.0 0.0 0.00 0.00 0.00 99 1015.4
20260906032331 60 11 0.0 0.0 0.00 0.00 0.00 99 1015.3
20260906031826 60 15 0.0 0.0 0.00 0.00 0.00 99 1015.3
20260906031322 61 23 0.0 0.0 0.00 0.00 0.00 99 1015.1
20260906030821 61 15 0.0 0.0 0.00 0.00 0.00 99 1015.3
20260906030317 61 7 0.0 0.0 0.00 0.00 0.00 99 1015.4
20260906025811 61 19 0.0 0.0 0.00 0.00 0.00 98 1015.3
20260906025306 62 27 0.0 0.0 0.00 0.00 0.00 97 1015.3
20260906024804 62 38 0.0 0.0 0.00 0.00 0.00 97 1015.5
20260906024303 62 35 0.0 1.0 0.00 0.00 0.00 96 1015.3
20260906023759 63 19 1.0 1.0 0.00 0.00 0.00 95 1015.3
20260906023254 63 30 1.0 1.0 0.00 0.00 0.00 95 1015.3
20260906022750 62 31 0.0 0.0 0.00 0.00 0.00 95 1015.4
20260906022245 62 25 0.0 0.0 0.00 0.00 0.00 96 1015.3
20260906021741 62 30 0.0 0.0 0.00 0.00 0.00 97 1015.3
20260906021240 63 31 0.0 0.0 0.00 0.00 0.00 96 1015.2
20260906020735 63 38 1.0 1.0 0.00 0.00 0.00 95 1015.2
20260906020235 63 34 0.0 0.0 0.00 0.00 0.00 94 1015.1
20260906015729 63 23 1.0 1.0 0.00 0.00 0.00 94 1015.2
20260906015228 63 13 0.0 0.0 0.00 0.00 0.00 93 1014.8
20260906014722 63 34 1.0 1.0 0.00 0.00 0.00 93 1015.0
20260906014219 64 54 1.0 1.0 0.00 0.00 0.00 93 1015.0
20260906013714 64 19 1.0 1.0 0.00 0.00 0.00 92 1015.1
20260906013214 64 25 0.0 1.0 0.00 0.00 0.00 91 1015.1
20260906012709 64 27 0.0 0.0 0.00 0.00 0.00 91 1015.2
20260906012204 64 43 1.0 1.0 0.00 0.00 0.00 93 1015.0
20260906011659 64 95 1.0 2.0 0.00 0.00 0.00 93 1015.0
20260906011154 64 9 0.0 0.0 0.00 0.00 0.00 92 1015.2
20260906010649 64 18 0.0 0.0 0.00 0.00 0.00 92 1015.0
20260906010146 64 17 0.0 0.0 0.00 0.00 0.00 91 1015.0
20260906005645 64 25 0.0 0.0 0.00 0.00 0.00 90 1015.0
20260906005144 64 28 0.0 1.0 0.00 0.00 0.00 91 1014.8
20260906004643 64 349 1.0 1.0 0.00 0.00 0.00 90 1014.7
20260906004139 65 17 0.0 0.0 0.00 0.00 0.00 90 1014.7
20260906003634 65 75 1.0 1.0 0.00 0.00 0.00 88 1014.5
20260906003130 65 352 1.0 1.0 0.00 0.00 0.00 88 1014.5
20260906002624 65 273 3.0 3.0 0.00 0.00 0.00 88 1014.5
20260906002119 65 30 0.0 1.0 0.00 0.00 0.00 88 1014.8
20260906001609 65 282 2.0 2.0 0.00 0.00 0.00 88 1014.6
20260906001109 65 37 0.0 0.0 0.00 0.00 0.00 88 1014.6
20260906000605 65 21 0.0 1.0 0.00 0.00 0.00 88 1014.5
20260906000100 66 215 1.0 2.0 0.00 0.00 0.00 88 1014.4
20260905235559 65 38 1.0 1.0 0.00 0.00 0.00 87 1014.5
20260905235054 65 17 0.0 1.0 0.00 0.00 0.00 87 1014.5
20260905234549 65 100 1.0 1.0 0.00 0.00 0.00 87 1014.5
20260905234044 66 60 1.0 1.0 0.00 0.00 0.00 86 1014.5
20260905233539 66 353 1.0 1.0 0.00 0.00 0.00 84 1014.4
20260905233039 67 347 1.0 1.0 0.00 0.00 0.00 84 1014.4
20260905232534 67 213 2.0 2.0 0.00 0.00 0.00 83 1014.1
20260905232029 67 114 1.0 2.0 0.00 0.00 0.00 83 1014.0
20260905231525 67 33 1.0 1.0 0.00 0.00 0.00 82 1014.3
20260905231021 67 6 0.0 0.0 0.00 0.00 0.00 82 1014.0
20260905230520 68 30 1.0 1.0 0.00 0.00 0.00 83 1014.3
20260905230018 68 305 3.0 3.0 0.00 0.00 0.00 81 1014.3
20260905225514 68 71 1.0 1.0 0.00 0.00 0.00 81 1014.4
20260905225009 68 10 0.0 1.0 0.00 0.00 0.00 81 1014.3
20260905224504 68 77 1.0 1.0 0.00 0.00 0.00 81 1014.1
20260905224003 68 61 1.0 2.0 0.00 0.00 0.00 82 1014.3
20260905223501 68 314 2.0 2.0 0.00 0.00 0.00 81 1014.1
20260905222955 68 340 1.0 1.0 0.00 0.00 0.00 81 1014.0
20260905222450 69 102 1.0 1.0 0.00 0.00 0.00 80 1014.2
20260905221945 69 31 1.0 1.0 0.00 0.00 0.00 79 1014.1
20260905221442 69 19 0.0 0.0 0.00 0.00 0.00 79 1013.9
20260905220938 69 2 0.0 0.0 0.00 0.00 0.00 78 1014.1
20260905220433 69 9 1.0 1.0 0.00 0.00 0.00 80 1014.1
20260905215933 69 118 1.0 2.0 0.00 0.00 0.00 77 1014.0
20260905215428 69 18 0.0 0.0 0.00 0.00 0.00 79 1014.0
20260905214924 69 12 1.0 1.0 0.00 0.00 0.00 80 1013.8
20260905214420 69 348 2.0 2.0 0.00 0.00 0.00 78 1013.9
20260905213920 69 86 2.0 2.0 0.00 0.00 0.00 76 1013.8
20260905213416 70 25 0.0 0.0 0.00 0.00 0.00 78 1013.8
20260905212911 70 93 0.0 0.0 0.00 0.00 0.00 76 1013.8
20260905212406 71 72 0.0 0.0 0.00 0.00 0.00 74 1013.8
20260905211900 70 15 0.0 0.0 0.00 0.00 0.00 76 1013.8
20260905211355 70 14 0.0 1.0 0.00 0.00 0.00 79 1013.8
20260905210852 69 281 2.0 2.0 0.00 0.00 0.00 75 1013.9
20260905210351 70 1 1.0 1.0 0.00 0.00 0.00 75 1013.8
20260905205850 71 65 1.0 2.0 0.00 0.00 0.00 72 1013.5
20260905205345 71 2 1.0 1.0 0.00 0.00 0.00 75 1013.6
20260905204844 72 1 2.0 2.0 0.00 0.00 0.00 70 1013.6
20260905204341 72 45 2.0 2.0 0.00 0.00 0.00 72 1013.4
20260905203839 72 26 1.0 2.0 0.00 0.00 0.00 70 1013.5
20260905203335 71 323 1.0 1.0 0.00 0.00 0.00 72 1013.6
20260905202831 72 9 2.0 5.0 0.00 0.00 0.00 74 1013.5
20260905202325 71 92 2.0 2.0 0.00 0.00 0.00 71 1013.6
20260905201821 71 193 2.0 2.0 0.00 0.00 0.00 70 1013.6
20260905201316 72 35 1.0 2.0 0.00 0.00 0.00 75 1013.7
20260905200811 72 253 2.0 2.0 0.00 0.00 0.00 74 1013.7
20260905200307 71 13 1.0 2.0 0.00 0.00 0.00 73 1013.7
20260905195804 71 26 1.0 1.0 0.00 0.00 0.00 73 1013.7
20260905195259 72 32 1.0 1.0 0.00 0.00 0.00 71 1013.7
20260905194755 71 24 2.0 3.0 0.00 0.00 0.00 73 1013.8
20260905194255 71 318 1.0 2.0 0.00 0.00 0.00 72 1013.8
20260905193754 70 14 1.0 1.0 0.00 0.00 0.00 77 1013.5
20260905193249 70 37 1.0 1.0 0.00 0.00 0.00 75 1013.8
20260905192739 70 18 0.0 1.0 0.00 0.00 0.00 74 1013.8
20260905192235 71 42 1.0 1.0 0.00 0.00 0.00 74 1013.9
20260905191734 72 359 1.0 1.0 0.00 0.00 0.00 75 1013.6
20260905191233 71 341 0.0 1.0 0.00 0.00 0.00 72 1014.0
20260905190732 71 7 0.0 0.0 0.00 0.00 0.00 75 1013.9
20260905190231 70 11 0.0 0.0 0.00 0.00 0.00 74 1013.9
20260905185730 70 309 3.0 5.0 0.00 0.00 0.00 75 1013.9
20260905185225 70 24 1.0 1.0 0.00 0.00 0.00 77 1013.9
20260905184719 70 62 1.0 2.0 0.00 0.00 0.00 77 1013.9
20260905184218 70 5 1.0 2.0 0.00 0.00 0.00 74 1014.0
20260905183717 71 297 1.0 1.0 0.00 0.00 0.00 75 1013.8
20260905183213 71 12 0.0 0.0 0.00 0.00 0.00 76 1013.9
20260905182712 71 16 1.0 2.0 0.00 0.00 0.00 75 1013.9
20260905182207 71 352 1.0 1.0 0.00 0.00 0.00 75 1013.8
20260905181702 70 221 2.0 2.0 0.00 0.00 0.00 74 1013.9
20260905181201 70 223 1.0 2.0 0.00 0.00 0.00 75 1013.9
20260905180655 68 15 0.0 0.0 0.00 0.00 0.00 78 1014.1
20260905180152 68 3 0.0 1.0 0.00 0.00 0.00 78 1013.9
20260905175650 69 278 1.0 2.0 0.00 0.00 0.00 78 1014.1
20260905175146 69 14 1.0 1.0 0.00 0.00 0.00 79 1014.1
20260905174641 70 13 1.0 2.0 0.00 0.00 0.00 76 1013.9
20260905174137 70 33 0.0 1.0 0.00 0.00 0.00 73 1013.8
20260905173632 71 352 1.0 1.0 0.00 0.00 0.00 73 1013.9
20260905173128 71 357 1.0 1.0 0.00 0.00 0.00 75 1013.9
20260905172627 71 67 5.0 6.0 0.00 0.00 0.00 70 1014.0
20260905172122 70 313 1.0 1.0 0.00 0.00 0.00 73 1013.9
20260905171618 70 243 2.0 2.0 0.00 0.00 0.00 71 1014.1
20260905171113 68 262 1.0 2.0 0.00 0.00 0.00 74 1014.0
20260905170605 68 237 2.0 2.0 0.00 0.00 0.00 77 1014.4
20260905170059 0 0.0 0.0 0.00 0.00 0.00 1014.1
20260905165554 70 72 1.0 1.0 0.00 0.00 0.00 75 1014.1
20260905165049 70 72 1.0 1.0 0.00 0.00 0.00 75 1014.0
20260905164544 68 15 3.0 6.0 0.00 0.00 0.00 72 1014.5
20260905164038 68 15 3.0 6.0 0.00 0.00 0.00 72 1014.2
20260905163534 68 262 0.0 0.0 0.00 0.00 0.00 76 1014.3
20260905163031 71 47 0.0 0.0 0.00 0.00 0.00 75 1014.2
20260905162526 71 47 0.0 0.0 0.00 0.00 0.00 75 1014.4
20260905162015 71 47 0.0 0.0 0.00 0.00 0.00 75 1014.2
20260905161515 0 0.0 0.0 0.00 0.00 0.00 1014.5
20260905161012 0 0.0 0.0 0.00 0.00 0.00 1014.4
20260905160506 0 0.0 0.0 0.00 0.00 0.00 1014.4
20260905160005 0 0.0 0.0 0.00 0.00 0.00 1014.5
20260905155500 67 232 0.0 0.0 0.00 0.00 0.00 81 1014.4
20260905154958 67 232 0.0 0.0 0.00 0.00 0.00 81 1014.2
20260905154454 67 232 0.0 0.0 0.00 0.00 0.00 81 1014.4
20260905153949 0 0.0 0.0 0.00 0.00 0.00 1014.7
20260905153445 0 0.0 0.0 0.00 0.00 0.00 1014.5
20260905152940 0 0.0 0.0 0.00 0.00 0.00 1014.7
20260905152439 0 0.0 0.0 0.00 0.00 0.00 1014.5
20260905151939 67 44 0.0 0.0 0.00 0.00 0.00 81 1014.6
20260905151435 67 44 0.0 0.0 0.00 0.00 0.00 81 1014.4
20260905150930 66 218 0.0 0.0 0.00 0.00 0.00 81 1014.5
20260905150430 0 0.0 0.0 0.00 0.00 0.00 1014.7
20260905145926 65 336 0.0 0.0 0.00 0.00 0.00 87 1014.5
20260905145421 65 336 0.0 0.0 0.00 0.00 0.00 87 1014.3
20260905144915 65 336 0.0 0.0 0.00 0.00 0.00 87 1014.5
20260905144411 66 106 0.0 0.0 0.00 0.00 0.00 86 1014.6
20260905143909 66 106 0.0 0.0 0.00 0.00 0.00 86 1014.6
20260905143403 65 354 0.0 0.0 0.00 0.00 0.00 87 1014.6
20260905142857 65 240 0.0 0.0 0.00 0.00 0.00 87 1014.3
20260905142355 66 251 0.0 0.0 0.00 0.00 0.00 86 1014.5
20260905141852 66 222 0.0 0.0 0.00 0.00 0.00 85 1014.4
20260905141347 66 222 0.0 0.0 0.00 0.00 0.00 85 1014.3
20260905140843 67 190 0.0 0.0 0.00 0.00 0.00 85 1014.3
20260905140343 67 31 0.0 0.0 0.00 0.00 0.00 84 1014.3
20260905135841 0 0.0 0.0 0.00 0.00 0.00 1014.4
20260905135338 64 115 0.0 0.0 0.00 0.00 0.00 91 1014.3
20260905134834 64 115 0.0 0.0 0.00 0.00 0.00 91 1014.5
20260905134332 64 111 0.0 0.0 0.00 0.00 0.00 90 1014.4
20260905133827 64 111 0.0 0.0 0.00 0.00 0.00 90 1014.5